Ланчхути

Грузия     42°05′17″N   42°02′17″E
В апреле 2022 года жителям России запретили посещать сайт meteo.paraplan.net по решению Генеральной прокуратуры. Аудитория сайта уменьшилась в 10 раз. Владельцы сайта не видят смысла в поддержке погодного сервера в таких условиях. Сайт будет закрыт в октябре.
темп.,
°C
ветер,
м/с
пор.,
м/с
влажн.,
%
обл.,
%
осадки,
мм/ч
давл.,
гПа
погр.,
м
25 сентября, вс
вс2501:00+12ссв11955 0.6 102313
04:00+11в11935 0.8 102312
07:00+10вюв119192 0.2 102415
10:00+13св128793 0.3 1024111
13:00+18св216465 0.0 1024519
16:00+20сз12525 0.0 10231239
19:00+14св22910 0.0 102325
22:00+13в22900 0.0 102327
26 сентября, пн
пн2601:00+11всв11845 0.0 102133
04:00+11всв11740 0.0 102034
07:00+10всв11653 0.0 101927
10:00+18св24520 0.0 1018252
13:00+24всв23400 0.0 1016488
16:00+26зюз21370 0.0 1015519
19:00+17ююз11714 0.0 101511
22:00+15вюв11705 0.0 101612
27 сентября, вт
вт2701:00+14вюв11660 0.0 101513
04:00+14в11540 0.0 101414
07:00+13в11460 0.0 101319
10:00+20св23460 0.0 1011197
13:00+27св233518 0.0 1009406
16:00+29св1240100 0.0 1007322
19:00+21вюв116732 0.0 100713
22:00+18в2254100 0.0 100720
28 сентября, ср
ср2801:00+17в114677 0.0 100523
04:00+18всв114294 0.0 100434
07:00+17в1143100 0.0 100424
10:00+24ссв11415 0.0 1004125
13:00+26зюз593964 0.0 1007701
16:00+25зюз610585 0.0 1008719
19:00+20зюз38891 0.0 1010451
22:00+18ююз29859 0.1 1012406
29 сентября, чт
чт2901:00+16в21698 0.0 101126
04:00+16всв116819 0.0 101119
07:00+16в116893 0.0 101012
10:00+22ссв11535 0.0 1011256
13:00+26зсз124517 0.0 1010915
16:00+24з4456100 0.0 1011668
19:00+19ююз2387100 0.0 101372
22:00+17юв11755 0.0 101411